DateTimeUTC,F1_A11,F1_S11,BsB_S11,BsG_S11,BsR_S11,BbsB_S11,BbsG_S11,BbsR_S11,BaB_A11,BaG_A11,BaR_A11,Tu_S11,T_S11,Uu_S11,U_S11,P_S11,T1_A11
2021-07-14T20:00:00Z,00000200,20000000,,,,,,,0000.03,-000.31,-000.28,19.2,25.7,11.8,07.9,0659.6,31.1
2021-07-14T20:01:00Z,00000200,20000000,,,,,,,-000.07,0000.05,0000.20,19.2,25.8,11.8,07.9,0659.6,31.2
2021-07-14T20:02:00Z,00000200,20000000,,,,,,,0000.25,0000.22,0000.05,19.2,25.8,11.8,07.9,0659.6,31.1
2021-07-14T20:03:00Z,00000200,60000000,,,,,,,-000.21,-000.04,-000.17,19.2,25.8,11.8,07.9,0659.6,31.1
2021-07-14T20:04:00Z,00000200,40000000,0000.80,0000.26,0000.12,0000.24,-000.11,-000.18,0000.28,0000.19,0000.38,19.2,25.6,11.8,08.1,0660.4,31.1
2021-07-14T20:05:00Z,00000200,00000000,0000.97,0000.42,0000.31,-000.31,-000.00,0000.51,0000.05,-000.11,0000.02,19.3,25.6,11.7,08.0,0660.5,31.1
2021-07-14T20:06:00Z,00000200,00000000,0000.78,0000.16,0000.02,0000.20,-000.08,0000.34,0000.21,0000.26,-000.04,19.3,25.5,11.7,08.0,0660.5,31.1
2021-07-14T20:07:00Z,00000200,00000000,0000.06,0000.52,0000.12,0000.42,0000.31,-000.20,-000.32,-000.18,0000.01,19.3,25.5,11.8,08.1,0660.4,31.1
2021-07-14T20:08:00Z,00000200,00000000,0000.68,0000.52,0000.06,-000.29,0000.21,0000.31,0000.42,0000.30,0000.00,19.3,25.5,11.7,08.0,0660.4,31.1
2021-07-14T20:09:00Z,00000200,00000000,0000.49,0000.06,0000.03,-000.06,-000.32,-000.27,-000.17,-000.08,-000.02,19.3,25.5,11.8,08.1,0660.5,31.1
2021-07-14T20:10:00Z,00000200,00000000,0000.45,0000.74,0000.62,0000.73,0000.04,0000.28,0000.40,-000.09,-000.19,19.3,25.5,11.8,08.1,0660.4,31.2
2021-07-14T20:11:00Z,00000200,00000000,0000.57,0000.29,0000.15,0000.30,-000.03,-000.11,-000.03,0000.08,0000.31,19.3,25.5,11.7,08.1,0660.5,31.1
2021-07-14T20:12:00Z,00000200,00000000,0000.16,0000.39,0000.09,0000.22,0000.09,-000.00,-000.16,0000.00,-000.01,19.3,25.5,11.8,08.1,0660.4,31.1
2021-07-14T20:13:00Z,00000200,00000000,0000.86,0000.36,0000.14,0000.35,-000.06,0000.29,0000.07,0000.21,0000.33,19.3,25.5,11.9,08.1,0660.5,31.1
2021-07-14T20:14:00Z,00000200,00000000,0000.03,0000.34,-000.05,0000.24,-000.27,0000.11,0000.20,-000.06,-000.16,19.3,25.5,11.8,08.1,0660.4,31.1
2021-07-14T20:15:00Z,00000200,00000000,0000.92,0000.23,0000.31,0001.08,-000.22,0000.13,0000.09,0000.07,-000.24,19.3,25.5,11.9,08.2,0660.4,31.1
2021-07-14T20:16:00Z,00000200,00000000,0000.99,0000.57,0000.50,0000.39,-000.14,-000.13,0000.04,0000.22,0000.64,19.3,25.5,11.7,08.0,0660.4,31.1
2021-07-14T20:17:00Z,00000200,00000000,0000.96,0000.13,0000.26,-000.32,-000.04,0000.13,-000.07,0000.22,-000.32,19.3,25.5,11.8,08.1,0660.4,31.1
2021-07-14T20:18:00Z,00000200,00000000,0001.11,0000.24,0000.10,0000.12,-000.13,0000.24,0000.14,-000.11,-000.03,19.3,25.5,11.7,08.0,0660.4,31.1
2021-07-14T20:19:00Z,00000200,00000000,0000.28,0000.50,0000.48,0000.19,-000.08,0000.31,-000.00,0000.50,0000.37,19.3,25.5,11.8,08.1,0660.5,31.1
2021-07-14T20:20:00Z,00000200,00000000,0001.09,0000.34,-000.07,-000.07,-000.05,-000.06,0000.07,-000.21,-000.03,19.3,25.5,11.9,08.1,0660.4,31.1
2021-07-14T20:21:00Z,00000200,00000000,0000.73,0000.62,0000.18,-000.30,0000.10,-000.06,0000.40,0000.09,0000.29,19.3,25.5,11.8,08.1,0660.4,31.1
2021-07-14T20:22:00Z,00000200,00000000,0000.56,0000.39,0000.16,0000.46,-000.01,0000.05,-000.10,-000.09,-000.20,19.3,25.5,11.8,08.1,0660.5,31.1
2021-07-14T20:23:00Z,00000200,00000000,0001.00,0000.03,0000.12,0000.39,-000.28,0000.40,0000.11,0000.23,0000.09,19.3,25.5,11.8,08.1,0660.4,31.1
2021-07-14T20:24:00Z,00000200,00000000,0000.84,0000.76,0000.03,0000.18,0000.03,-000.17,0000.26,-000.07,0000.24,19.3,25.5,11.9,08.1,0660.5,31.1
2021-07-14T20:25:00Z,00000200,00000000,0000.92,0000.56,0000.42,0000.01,0000.12,0000.05,0000.28,0000.16,0000.18,19.3,25.5,11.9,08.1,0660.4,31.1
2021-07-14T20:26:00Z,00000200,00000000,-000.07,0000.43,0000.08,0000.40,0000.00,0000.01,-000.37,-000.07,-000.14,19.3,25.5,11.8,08.1,0660.4,31.1
2021-07-14T20:27:00Z,00000200,00000000,0000.63,-000.01,0000.23,-000.24,-000.05,-000.03,0000.40,0000.44,0000.07,19.3,25.5,12.0,08.2,0660.4,31.1
2021-07-14T20:28:00Z,00000200,00000000,0000.58,0000.55,-000.04,0000.07,-000.08,-000.27,-000.37,-000.44,-000.10,19.3,25.5,11.8,08.1,0660.4,31.1
2021-07-14T20:29:00Z,00000200,00000000,0000.07,0000.86,0000.09,0000.31,0000.24,-000.04,-000.27,-000.37,-000.12,19.3,25.5,11.5,07.9,0660.3,31.1
2021-07-14T20:30:00Z,00000200,00000000,0000.53,0000.40,-000.03,-000.15,-000.02,-000.11,-000.10,0000.17,-000.03,19.3,25.5,10.9,07.5,0660.4,31.1
2021-07-14T20:31:00Z,00000200,00000000,0000.67,0000.24,0000.22,0000.54,-000.24,-000.06,-000.00,-000.11,-000.31,19.3,25.4,11.0,07.5,0660.4,31.1
2021-07-14T20:32:00Z,00000200,00000000,0000.43,0000.23,0000.08,-000.08,-000.24,-000.02,0000.04,0000.29,0000.03,19.3,25.5,10.9,07.5,0660.4,31.2
2021-07-14T20:33:00Z,00000200,00000000,0000.74,0000.27,0000.22,0000.09,-000.02,0000.17,0000.11,-000.64,-000.28,19.3,25.4,10.9,07.5,0660.3,31.1
2021-07-14T20:34:00Z,00000200,00000000,0000.90,0000.16,0000.14,-000.07,0000.19,0000.14,0000.24,0000.83,0000.50,19.3,25.4,10.6,07.3,0660.4,31.1
2021-07-14T20:35:00Z,00000200,00000000,0000.28,0000.03,-000.24,-000.35,-000.08,0000.34,-000.05,-000.13,0000.18,19.3,25.4,11.0,07.6,0660.4,31.1
2021-07-14T20:36:00Z,00000200,00000000,0000.80,0000.37,0000.29,-000.46,-000.23,0000.00,0000.26,0000.02,0000.07,19.3,25.4,11.3,07.8,0660.4,31.1
2021-07-14T20:37:00Z,00000200,00000000,0000.29,0000.54,0000.09,0000.35,0000.11,0000.15,0000.14,0000.19,0000.14,19.3,25.4,11.4,07.8,0660.4,31.1
2021-07-14T20:38:00Z,00000200,00000000,0000.67,0000.52,0000.14,0000.59,0000.08,0000.18,0000.10,0000.00,-000.04,19.3,25.4,11.6,08.0,0660.4,31.1
2021-07-14T20:39:00Z,00000200,00000000,0001.27,0000.31,0000.17,-000.20,-000.14,0000.20,0000.29,0000.36,-000.03,19.3,25.4,11.5,07.9,0660.4,31.1
2021-07-14T20:40:00Z,00000200,00000000,0000.48,0000.23,0000.34,-000.64,-000.07,0000.14,-000.14,0000.10,0000.38,19.3,25.4,11.6,07.9,0660.4,31.1
2021-07-14T20:41:00Z,00000200,00000000,0000.29,0000.04,-000.10,0000.18,-000.18,0000.03,0000.06,0000.14,-000.13,19.3,25.4,11.5,07.9,0660.4,31.1
2021-07-14T20:42:00Z,00000200,00000000,0000.26,0000.69,0000.38,0000.11,-000.19,0000.07,-000.07,-000.16,0000.05,19.3,25.4,11.3,07.8,0660.3,31.1
2021-07-14T20:43:00Z,00000200,00000000,0000.30,0000.18,0000.41,-000.05,0000.16,-000.07,-000.01,0000.01,-000.06,19.3,25.4,11.4,07.8,0660.3,31.1
2021-07-14T20:44:00Z,00000200,00000000,0000.90,0000.59,0000.26,0000.53,-000.18,-000.07,-000.05,0000.23,0000.10,19.3,25.4,11.3,07.8,0660.4,31.1
2021-07-14T20:45:00Z,00000200,00000000,0000.99,0000.55,0000.42,0000.62,-000.38,0000.11,0000.38,-000.11,0000.26,19.3,25.4,11.4,07.8,0660.4,31.1
2021-07-14T20:46:00Z,00000200,00000000,0001.08,0000.55,0000.28,0000.13,-000.01,0000.37,-000.15,-000.24,-000.12,19.2,25.4,11.4,07.9,0660.3,31.1
2021-07-14T20:47:00Z,00000200,00000000,0000.65,0000.38,0000.15,0000.24,0000.10,-000.31,0000.19,0000.33,-000.08,19.2,25.4,11.4,07.8,0660.3,31.1
2021-07-14T20:48:00Z,00000200,00000000,0000.28,0000.37,-000.10,-000.07,-000.05,-000.19,-000.10,-000.14,-000.00,19.2,25.4,11.3,07.8,0660.4,31.1
2021-07-14T20:49:00Z,00000200,00000000,0000.31,0000.32,0000.03,0000.11,-000.30,0000.18,0000.21,0000.21,0000.20,19.2,25.4,11.4,07.8,0660.3,31.1
2021-07-14T20:50:00Z,00000200,00000000,0000.98,0000.04,0000.24,0000.34,0000.01,0000.28,-000.00,0000.34,-000.21,19.2,25.4,11.3,07.8,0660.3,31.1
2021-07-14T20:51:00Z,00000200,00000000,0000.24,0000.48,0000.04,0000.13,0000.20,-000.08,0000.27,-000.45,0000.48,19.2,25.4,11.4,07.9,0660.4,31.1
2021-07-14T20:52:00Z,00000200,00000000,0000.50,0000.25,-000.10,-000.00,-000.51,-000.10,0000.09,0000.39,-000.29,19.2,25.4,11.4,07.9,0660.4,31.1
2021-07-14T20:53:00Z,00000200,00000000,0000.70,0000.33,-000.02,0000.63,0000.02,0000.01,0000.01,-000.31,0000.23,19.2,25.4,11.4,07.8,0660.3,31.1
2021-07-14T20:54:00Z,00000200,00000000,0000.87,0000.30,-000.01,-000.10,-000.04,0000.29,-000.01,0000.46,-000.23,19.2,25.4,11.4,07.8,0660.3,31.1
2021-07-14T20:55:00Z,00000200,00000000,0000.45,0000.53,0000.38,-000.20,-000.19,0000.37,-000.26,0000.15,0000.34,19.2,25.4,11.5,07.9,0660.3,31.1
2021-07-14T20:56:00Z,00000200,00000000,0000.63,0000.09,0000.35,0000.19,-000.07,0000.17,0000.50,-000.30,0000.07,19.2,25.4,11.4,07.8,0660.4,31.1
2021-07-14T20:57:00Z,00000200,40000000,,,,,,,-000.10,0000.15,0000.06,19.2,25.4,11.5,07.9,0660.3,31.1
2021-07-14T20:58:00Z,00000200,60000000,,,,,,,0000.07,0000.03,-000.22,19.0,25.5,11.6,07.8,0659.4,31.1
2021-07-14T20:59:00Z,00000200,20000000,,,,,,,-000.01,-000.12,-000.09,19.0,25.6,11.6,07.7,0659.4,31.1
